Year,Month,Day,Hour,Minute,Value (Times are PST for temperature in C)
2012,04,10,00,00,10.10
2012,04,10,00,01,10.00
2012,04,10,00,02,10.10
2012,04,10,00,03,10.10
2012,04,10,00,04,10.00
2012,04,10,00,05,10.00
2012,04,10,00,06,10.00
2012,04,10,00,07,10.00
2012,04,10,00,08,10.00
2012,04,10,00,09,10.00
2012,04,10,00,10,9.90
2012,04,10,00,11,9.90
2012,04,10,00,12,9.90
2012,04,10,00,13,9.90
2012,04,10,00,14,9.90
2012,04,10,00,15,9.90
2012,04,10,00,16,9.80
2012,04,10,00,17,9.80
2012,04,10,00,18,9.80
2012,04,10,00,19,9.80
2012,04,10,00,20,9.80
2012,04,10,00,21,9.80
2012,04,10,00,22,9.80
2012,04,10,00,23,9.80
2012,04,10,00,24,9.80
2012,04,10,00,25,9.80
2012,04,10,00,26,9.80
2012,04,10,00,27,9.70
2012,04,10,00,28,9.70
2012,04,10,00,29,9.70
2012,04,10,00,30,9.70
2012,04,10,00,31,9.70
2012,04,10,00,32,9.70
2012,04,10,00,33,9.70
2012,04,10,00,34,9.70
2012,04,10,00,35,9.70
2012,04,10,00,36,9.70
2012,04,10,00,37,9.70
2012,04,10,00,38,9.60
2012,04,10,00,39,9.60
2012,04,10,00,40,9.60
2012,04,10,00,41,9.60
2012,04,10,00,42,9.60
2012,04,10,00,43,9.60
2012,04,10,00,44,9.60
2012,04,10,00,45,9.60
2012,04,10,00,46,9.60
2012,04,10,00,47,9.50
2012,04,10,00,48,9.50
2012,04,10,00,49,9.50
2012,04,10,00,50,9.50
2012,04,10,00,51,9.40
2012,04,10,00,52,9.40
2012,04,10,00,53,9.40
2012,04,10,00,54,9.40
2012,04,10,00,55,9.30
2012,04,10,00,56,9.30
2012,04,10,00,57,9.30
2012,04,10,00,58,9.30
2012,04,10,00,59,9.30
2012,04,10,01,00,9.30
2012,04,10,01,01,9.30
2012,04,10,01,02,9.30
2012,04,10,01,03,9.30
2012,04,10,01,04,9.30
2012,04,10,01,05,9.30
2012,04,10,01,06,9.30
2012,04,10,01,07,9.30
2012,04,10,01,08,9.30
2012,04,10,01,09,9.30
2012,04,10,01,10,9.30
2012,04,10,01,11,9.20
2012,04,10,01,12,9.20
2012,04,10,01,13,9.20
2012,04,10,01,14,9.20
2012,04,10,01,15,9.20
2012,04,10,01,16,9.20
2012,04,10,01,17,9.20
2012,04,10,01,18,9.20
2012,04,10,01,19,9.20
2012,04,10,01,20,9.20
2012,04,10,01,21,9.20
2012,04,10,01,22,9.20
2012,04,10,01,23,9.20
2012,04,10,01,24,9.20
2012,04,10,01,25,9.20
2012,04,10,01,26,9.20
2012,04,10,01,27,9.10
2012,04,10,01,28,9.10
2012,04,10,01,29,9.10
2012,04,10,01,30,9.10
2012,04,10,01,31,9.10
2012,04,10,01,32,9.10
2012,04,10,01,33,9.10
2012,04,10,01,34,9.00
2012,04,10,01,35,9.00
2012,04,10,01,36,9.00
2012,04,10,01,37,9.00
2012,04,10,01,38,9.00
2012,04,10,01,39,8.90
2012,04,10,01,40,8.90
2012,04,10,01,41,8.90
2012,04,10,01,42,8.90
2012,04,10,01,43,8.80
2012,04,10,01,44,8.80
2012,04,10,01,45,8.80
2012,04,10,01,46,8.80
2012,04,10,01,47,8.80
2012,04,10,01,48,8.80
2012,04,10,01,49,8.80
2012,04,10,01,50,8.80
2012,04,10,01,51,8.70
2012,04,10,01,52,8.70
2012,04,10,01,53,8.70
2012,04,10,01,54,8.70
2012,04,10,01,55,8.70
2012,04,10,01,56,8.70
2012,04,10,01,57,8.70
2012,04,10,01,58,8.70
2012,04,10,01,59,8.70
2012,04,10,02,00,8.70
2012,04,10,02,01,8.60
2012,04,10,02,02,8.60
2012,04,10,02,03,8.60
2012,04,10,02,04,8.60
2012,04,10,02,05,8.60
2012,04,10,02,06,8.60
2012,04,10,02,07,8.60
2012,04,10,02,08,8.60
2012,04,10,02,09,8.50
2012,04,10,02,10,8.50
2012,04,10,02,11,8.50
2012,04,10,02,12,8.40
2012,04,10,02,13,8.40
2012,04,10,02,14,8.40
2012,04,10,02,15,8.40
2012,04,10,02,16,8.40
2012,04,10,02,17,8.40
2012,04,10,02,18,8.30
2012,04,10,02,19,8.30
2012,04,10,02,20,8.30
2012,04,10,02,21,8.30
2012,04,10,02,22,8.30
2012,04,10,02,23,8.30
2012,04,10,02,24,8.30
2012,04,10,02,25,8.30
2012,04,10,02,26,8.30
2012,04,10,02,27,8.30
2012,04,10,02,28,8.30
2012,04,10,02,29,8.30
2012,04,10,02,30,8.30
2012,04,10,02,31,8.30
2012,04,10,02,32,8.20
2012,04,10,02,33,8.20
2012,04,10,02,34,8.20
2012,04,10,02,35,8.20
2012,04,10,02,36,8.20
2012,04,10,02,37,8.20
2012,04,10,02,38,8.20
2012,04,10,02,39,8.20
2012,04,10,02,40,8.20
2012,04,10,02,41,8.20
2012,04,10,02,42,8.20
2012,04,10,02,43,8.20
2012,04,10,02,44,8.20
2012,04,10,02,45,8.20
2012,04,10,02,46,8.20
2012,04,10,02,47,8.20
2012,04,10,02,48,8.20
2012,04,10,02,49,8.20
2012,04,10,02,50,8.20
2012,04,10,02,51,8.20
2012,04,10,02,52,8.20
2012,04,10,02,53,8.10
2012,04,10,02,54,8.10
2012,04,10,02,55,8.10
2012,04,10,02,56,8.10
2012,04,10,02,57,8.10
2012,04,10,02,58,8.10
2012,04,10,02,59,8.10
2012,04,10,03,00,8.10
2012,04,10,03,01,8.10
2012,04,10,03,02,8.10
2012,04,10,03,03,8.10
2012,04,10,03,04,8.10
2012,04,10,03,05,8.10
2012,04,10,03,06,8.10
2012,04,10,03,07,8.10
2012,04,10,03,08,8.00
2012,04,10,03,09,8.00
2012,04,10,03,10,8.00
2012,04,10,03,11,8.00
2012,04,10,03,12,8.00
2012,04,10,03,13,8.00
2012,04,10,03,14,8.00
2012,04,10,03,15,8.00
2012,04,10,03,16,7.90
2012,04,10,03,17,7.90
2012,04,10,03,18,7.90
2012,04,10,03,19,7.90
2012,04,10,03,20,7.90
2012,04,10,03,21,7.90
2012,04,10,03,22,7.80
2012,04,10,03,23,7.80
2012,04,10,03,24,7.80
2012,04,10,03,25,7.80
2012,04,10,03,26,7.80
2012,04,10,03,27,7.80
2012,04,10,03,28,7.70
2012,04,10,03,29,7.70
2012,04,10,03,30,7.70
2012,04,10,03,31,7.70
2012,04,10,03,32,7.70
2012,04,10,03,33,7.70
2012,04,10,03,34,7.70
2012,04,10,03,35,7.70
2012,04,10,03,36,7.70
2012,04,10,03,37,7.70
2012,04,10,03,38,7.70
2012,04,10,03,39,7.70
2012,04,10,03,40,7.70
2012,04,10,03,41,7.60
2012,04,10,03,42,7.60
2012,04,10,03,43,7.60
2012,04,10,03,44,7.60
2012,04,10,03,45,7.60
2012,04,10,03,46,7.60
2012,04,10,03,47,7.60
2012,04,10,03,48,7.60
2012,04,10,03,49,7.60
2012,04,10,03,50,7.60
2012,04,10,03,51,7.60
2012,04,10,03,52,7.60
2012,04,10,03,53,7.60
2012,04,10,03,54,7.60
2012,04,10,03,55,7.60
2012,04,10,03,56,7.60
2012,04,10,03,57,7.60
2012,04,10,03,58,7.60
2012,04,10,03,59,7.50
2012,04,10,04,00,7.50
2012,04,10,04,01,7.50
2012,04,10,04,02,7.50
2012,04,10,04,03,7.50
2012,04,10,04,04,7.50
2012,04,10,04,05,7.50
2012,04,10,04,06,7.50
2012,04,10,04,07,7.50
2012,04,10,04,08,7.50
2012,04,10,04,09,7.50
2012,04,10,04,10,7.50
2012,04,10,04,11,7.50
2012,04,10,04,12,7.50
2012,04,10,04,13,7.40
2012,04,10,04,14,7.40
2012,04,10,04,15,7.40
2012,04,10,04,16,7.40
2012,04,10,04,17,7.40
2012,04,10,04,18,7.40
2012,04,10,04,19,7.40
2012,04,10,04,20,7.40
2012,04,10,04,21,7.40
2012,04,10,04,22,7.40
2012,04,10,04,23,7.40
2012,04,10,04,24,7.40
2012,04,10,04,25,7.40
2012,04,10,04,26,7.40
2012,04,10,04,27,7.40
2012,04,10,04,28,7.40
2012,04,10,04,29,7.40
2012,04,10,04,30,7.40
2012,04,10,04,31,7.30
2012,04,10,04,32,7.30
2012,04,10,04,33,7.30
2012,04,10,04,34,7.30
2012,04,10,04,35,7.30
2012,04,10,04,36,7.30
2012,04,10,04,37,7.30
2012,04,10,04,38,7.30
2012,04,10,04,39,7.30
2012,04,10,04,40,7.30
2012,04,10,04,41,7.20
2012,04,10,04,42,7.20
2012,04,10,04,43,7.20
2012,04,10,04,44,7.20
2012,04,10,04,45,7.20
2012,04,10,04,46,7.20
2012,04,10,04,47,7.20
2012,04,10,04,48,7.20
2012,04,10,04,49,7.20
2012,04,10,04,50,7.20
2012,04,10,04,51,7.20
2012,04,10,04,52,7.10
2012,04,10,04,53,7.10
2012,04,10,04,54,7.10
2012,04,10,04,55,7.10
2012,04,10,04,56,7.10
2012,04,10,04,57,7.00
2012,04,10,04,58,7.00
2012,04,10,04,59,7.00
2012,04,10,05,00,7.00
2012,04,10,05,01,6.90
2012,04,10,05,02,6.90
2012,04,10,05,03,6.90
2012,04,10,05,04,6.90
2012,04,10,05,05,6.90
2012,04,10,05,06,6.90
2012,04,10,05,07,6.90
2012,04,10,05,08,6.90
2012,04,10,05,09,6.90
2012,04,10,05,10,6.90
2012,04,10,05,11,6.80
2012,04,10,05,12,6.80
2012,04,10,05,13,6.80
2012,04,10,05,14,6.80
2012,04,10,05,15,6.80
2012,04,10,05,16,6.80
2012,04,10,05,17,6.80
2012,04,10,05,18,6.80
2012,04,10,05,19,6.80
2012,04,10,05,20,6.80
2012,04,10,05,21,6.80
2012,04,10,05,22,6.80
2012,04,10,05,23,6.80
2012,04,10,05,24,6.80
2012,04,10,05,25,6.80
2012,04,10,05,26,6.80
2012,04,10,05,27,6.70
2012,04,10,05,28,6.70
2012,04,10,05,29,6.70
2012,04,10,05,30,6.70
2012,04,10,05,31,6.70
2012,04,10,05,32,6.70
2012,04,10,05,33,6.70
2012,04,10,05,34,6.70
2012,04,10,05,35,6.70
2012,04,10,05,36,6.70
2012,04,10,05,37,6.70
2012,04,10,05,38,6.70
2012,04,10,05,39,6.70
2012,04,10,05,40,6.70
2012,04,10,05,41,6.70
2012,04,10,05,42,6.70
2012,04,10,05,43,6.70
2012,04,10,05,44,6.70
2012,04,10,05,45,6.70
2012,04,10,05,46,6.70
2012,04,10,05,47,6.70
2012,04,10,05,48,6.70
2012,04,10,05,49,6.70
2012,04,10,05,50,6.70
2012,04,10,05,51,6.70
2012,04,10,05,52,6.70
2012,04,10,05,53,6.70
2012,04,10,05,54,6.70
2012,04,10,05,55,6.80
2012,04,10,05,56,6.80
2012,04,10,05,57,6.80
2012,04,10,05,58,6.80
2012,04,10,05,59,6.80
2012,04,10,06,00,6.80
2012,04,10,06,01,6.80
2012,04,10,06,02,6.70
2012,04,10,06,03,6.80
2012,04,10,06,04,6.70
2012,04,10,06,05,6.80
2012,04,10,06,06,6.70
2012,04,10,06,07,6.70
2012,04,10,06,08,6.80
2012,04,10,06,09,6.80
2012,04,10,06,10,6.70
2012,04,10,06,11,6.70
2012,04,10,06,12,6.70
2012,04,10,06,13,6.70
2012,04,10,06,14,6.70
2012,04,10,06,15,6.70
2012,04,10,06,16,6.70
2012,04,10,06,17,6.70
2012,04,10,06,18,6.70
2012,04,10,06,19,6.70
2012,04,10,06,20,6.70
2012,04,10,06,21,6.70
2012,04,10,06,22,6.70
2012,04,10,06,23,6.70
2012,04,10,06,24,6.70
2012,04,10,06,25,6.70
2012,04,10,06,26,6.70
2012,04,10,06,27,6.70
2012,04,10,06,28,6.70
2012,04,10,06,29,6.70
2012,04,10,06,30,6.70
2012,04,10,06,31,6.70
2012,04,10,06,32,6.70
2012,04,10,06,33,6.70
2012,04,10,06,34,6.70
2012,04,10,06,35,6.70
2012,04,10,06,36,6.70
2012,04,10,06,37,6.70
2012,04,10,06,38,6.70
2012,04,10,06,39,6.70
2012,04,10,06,40,6.70
2012,04,10,06,41,6.70
2012,04,10,06,42,6.70
2012,04,10,06,43,6.80
2012,04,10,06,44,6.80
2012,04,10,06,45,6.80
2012,04,10,06,46,6.80
2012,04,10,06,47,6.80
2012,04,10,06,48,6.80
2012,04,10,06,49,6.80
2012,04,10,06,50,6.80
2012,04,10,06,51,6.80
2012,04,10,06,52,6.80
2012,04,10,06,53,6.80
2012,04,10,06,54,6.80
2012,04,10,06,55,6.80
2012,04,10,06,56,6.80
2012,04,10,06,57,6.90
2012,04,10,06,58,6.90
2012,04,10,06,59,6.90
2012,04,10,07,00,6.90
2012,04,10,07,01,6.90
2012,04,10,07,02,6.90
2012,04,10,07,03,6.90
2012,04,10,07,04,6.90
2012,04,10,07,05,6.90
2012,04,10,07,06,6.90
2012,04,10,07,07,6.90
2012,04,10,07,08,6.90
2012,04,10,07,09,7.00
2012,04,10,07,10,7.00
2012,04,10,07,11,6.90
2012,04,10,07,12,6.90
2012,04,10,07,13,6.90
2012,04,10,07,14,6.90
2012,04,10,07,15,6.90
2012,04,10,07,16,6.90
2012,04,10,07,17,6.90
2012,04,10,07,18,6.90
2012,04,10,07,19,6.90
2012,04,10,07,20,6.90
2012,04,10,07,21,7.00
2012,04,10,07,22,7.00
2012,04,10,07,23,7.00
2012,04,10,07,24,7.00
2012,04,10,07,25,7.00
2012,04,10,07,26,7.00
2012,04,10,07,27,7.00
2012,04,10,07,28,7.00
2012,04,10,07,29,7.00
2012,04,10,07,30,7.00
2012,04,10,07,31,7.00
2012,04,10,07,32,7.00
2012,04,10,07,33,7.00
2012,04,10,07,34,7.00
2012,04,10,07,35,7.00
2012,04,10,07,36,7.00
2012,04,10,07,37,7.00
2012,04,10,07,38,7.00
2012,04,10,07,39,7.00
2012,04,10,07,40,7.00
2012,04,10,07,41,7.10
2012,04,10,07,42,7.10
2012,04,10,07,43,7.10
2012,04,10,07,44,7.10
2012,04,10,07,45,7.10
2012,04,10,07,46,7.10
2012,04,10,07,47,7.20
2012,04,10,07,48,7.20
2012,04,10,07,49,7.20
2012,04,10,07,50,7.20
2012,04,10,07,51,7.30
2012,04,10,07,52,7.30
2012,04,10,07,53,7.30
2012,04,10,07,54,7.30
2012,04,10,07,55,7.30
2012,04,10,07,56,7.40
2012,04,10,07,57,7.40
2012,04,10,07,58,7.40
2012,04,10,07,59,7.40
2012,04,10,08,00,7.40
2012,04,10,08,01,7.50
2012,04,10,08,02,7.50
2012,04,10,08,03,7.50
2012,04,10,08,04,7.50
2012,04,10,08,05,7.60
2012,04,10,08,06,7.60
2012,04,10,08,07,7.60
2012,04,10,08,08,7.60
2012,04,10,08,09,7.60
2012,04,10,08,10,7.60
2012,04,10,08,11,7.70
2012,04,10,08,12,7.70
2012,04,10,08,13,7.70
2012,04,10,08,14,7.70
2012,04,10,08,15,7.70
2012,04,10,08,16,7.70
2012,04,10,08,17,7.70
2012,04,10,08,18,7.70
2012,04,10,08,19,7.70
2012,04,10,08,20,7.70
2012,04,10,08,21,7.80
2012,04,10,08,22,7.80
2012,04,10,08,23,7.80
2012,04,10,08,24,7.80
2012,04,10,08,25,7.80
2012,04,10,08,26,7.80
2012,04,10,08,27,7.90
2012,04,10,08,28,7.90
2012,04,10,08,29,7.90
2012,04,10,08,30,7.90
2012,04,10,08,31,7.90
2012,04,10,08,32,7.90
2012,04,10,08,33,8.00
2012,04,10,08,34,8.00
2012,04,10,08,35,8.00
2012,04,10,08,36,8.10
2012,04,10,08,37,8.10
2012,04,10,08,38,8.10
2012,04,10,08,39,8.10
2012,04,10,08,40,8.20
2012,04,10,08,41,8.20
2012,04,10,08,42,8.20
2012,04,10,08,43,8.20
2012,04,10,08,44,8.20
2012,04,10,08,45,8.30
2012,04,10,08,46,8.30
2012,04,10,08,47,8.30
2012,04,10,08,48,8.30
2012,04,10,08,49,8.30
2012,04,10,08,50,8.40
2012,04,10,08,51,8.40
2012,04,10,08,52,8.40
2012,04,10,08,53,8.40
2012,04,10,08,54,8.40
2012,04,10,08,55,8.50
2012,04,10,08,56,8.50
2012,04,10,08,57,8.50
2012,04,10,08,58,8.60
2012,04,10,08,59,8.60
2012,04,10,09,00,8.60
2012,04,10,09,01,8.60
2012,04,10,09,02,8.60
2012,04,10,09,03,8.60
2012,04,10,09,04,8.60
2012,04,10,09,05,8.60
2012,04,10,09,06,8.60
2012,04,10,09,07,8.60
2012,04,10,09,08,8.60
2012,04,10,09,09,8.60
2012,04,10,09,10,8.60
2012,04,10,09,11,8.60
2012,04,10,09,12,8.60
2012,04,10,09,13,8.60
2012,04,10,09,14,8.60
2012,04,10,09,15,8.60
2012,04,10,09,16,8.70
2012,04,10,09,17,8.70
2012,04,10,09,18,8.70
2012,04,10,09,19,8.70
2012,04,10,09,20,8.70
2012,04,10,09,21,8.70
2012,04,10,09,22,8.80
2012,04,10,09,23,8.80
2012,04,10,09,24,8.80
2012,04,10,09,25,8.90
2012,04,10,09,26,8.90
2012,04,10,09,27,9.00
2012,04,10,09,28,9.00
2012,04,10,09,29,9.00
2012,04,10,09,30,9.10
2012,04,10,09,31,9.10
2012,04,10,09,32,9.20
2012,04,10,09,33,9.20
2012,04,10,09,34,9.30
2012,04,10,09,35,9.30
2012,04,10,09,36,9.30
2012,04,10,09,37,9.30
2012,04,10,09,38,9.30
2012,04,10,09,39,9.30
2012,04,10,09,40,9.40
2012,04,10,09,41,9.40
2012,04,10,09,42,9.40
2012,04,10,09,43,9.40
2012,04,10,09,44,9.40
2012,04,10,09,45,9.40
2012,04,10,09,46,9.40
2012,04,10,09,47,9.40
2012,04,10,09,48,9.50
2012,04,10,09,49,9.50
2012,04,10,09,50,9.60
2012,04,10,09,51,9.60
2012,04,10,09,52,9.60
2012,04,10,09,53,9.60
2012,04,10,09,54,9.60
2012,04,10,09,55,9.60
2012,04,10,09,56,9.70
2012,04,10,09,57,9.70
2012,04,10,09,58,9.70
2012,04,10,09,59,9.70
2012,04,10,10,00,9.70
2012,04,10,10,01,9.70
2012,04,10,10,02,9.70
2012,04,10,10,03,9.70
2012,04,10,10,04,9.70
2012,04,10,10,05,9.80
2012,04,10,10,06,9.80
2012,04,10,10,07,9.80
2012,04,10,10,08,9.80
2012,04,10,10,09,9.90
2012,04,10,10,10,9.90
2012,04,10,10,11,9.90
2012,04,10,10,12,9.90
2012,04,10,10,13,9.90
2012,04,10,10,14,9.90
2012,04,10,10,15,9.90
2012,04,10,10,16,9.90
2012,04,10,10,17,10.00
2012,04,10,10,18,10.00
2012,04,10,10,19,10.00
2012,04,10,10,20,10.10
2012,04,10,10,21,10.10
2012,04,10,10,22,10.10
2012,04,10,10,23,10.10
2012,04,10,10,24,10.20
2012,04,10,10,25,10.20
2012,04,10,10,26,10.20
2012,04,10,10,27,10.20
2012,04,10,10,28,10.30
2012,04,10,10,29,10.30
2012,04,10,10,30,10.30
2012,04,10,10,31,10.30
2012,04,10,10,32,10.40
2012,04,10,10,33,10.40
2012,04,10,10,34,10.40
2012,04,10,10,35,10.50
2012,04,10,10,36,10.50
2012,04,10,10,37,10.60
2012,04,10,10,38,10.60
2012,04,10,10,39,10.60
2012,04,10,10,40,10.70
2012,04,10,10,41,10.70
2012,04,10,10,42,10.70
2012,04,10,10,43,10.70
2012,04,10,10,44,10.80
2012,04,10,10,45,10.80
2012,04,10,10,46,10.80
2012,04,10,10,47,10.80
2012,04,10,10,48,10.80
2012,04,10,10,49,10.80
2012,04,10,10,50,10.80
2012,04,10,10,51,10.80
2012,04,10,10,52,10.80
2012,04,10,10,53,10.90
2012,04,10,10,54,11.00
2012,04,10,10,55,11.00
2012,04,10,10,56,11.10
2012,04,10,10,57,11.10
2012,04,10,10,58,11.20
2012,04,10,10,59,11.30
2012,04,10,11,00,11.30
2012,04,10,11,01,11.40
2012,04,10,11,02,11.50
2012,04,10,11,03,11.50
2012,04,10,11,04,11.60
2012,04,10,11,05,11.60
2012,04,10,11,06,11.70
2012,04,10,11,07,11.80
2012,04,10,11,08,11.80
2012,04,10,11,09,11.90
2012,04,10,11,10,12.10
2012,04,10,11,11,12.20
2012,04,10,11,12,12.20
2012,04,10,11,13,12.30
2012,04,10,11,14,12.50
2012,04,10,11,15,12.60
2012,04,10,11,16,12.70
2012,04,10,11,17,12.70
2012,04,10,11,18,12.80
2012,04,10,11,19,12.90
2012,04,10,11,20,12.90
2012,04,10,11,21,13.00
2012,04,10,11,22,13.00
2012,04,10,11,23,13.10
2012,04,10,11,24,13.10
2012,04,10,11,25,13.20
2012,04,10,11,26,13.30
2012,04,10,11,27,13.40
2012,04,10,11,28,13.50
2012,04,10,11,29,13.50
2012,04,10,11,30,13.60
2012,04,10,11,31,13.70
2012,04,10,11,32,13.70
2012,04,10,11,33,13.80
2012,04,10,11,34,13.90
2012,04,10,11,35,13.90
2012,04,10,11,36,14.00
2012,04,10,11,37,14.10
2012,04,10,11,38,14.30
2012,04,10,11,39,14.40
2012,04,10,11,40,14.50
2012,04,10,11,41,14.60
2012,04,10,11,42,14.70
2012,04,10,11,43,14.70
2012,04,10,11,44,14.70
2012,04,10,11,45,14.80
2012,04,10,11,46,14.80
2012,04,10,11,47,14.80
2012,04,10,11,48,15.00
2012,04,10,11,49,15.00
2012,04,10,11,50,15.00
2012,04,10,11,51,15.20
2012,04,10,11,52,15.20
2012,04,10,11,53,15.30
2012,04,10,11,54,15.40
2012,04,10,11,55,15.50
2012,04,10,11,56,15.60
2012,04,10,11,57,15.70
2012,04,10,11,58,15.80
2012,04,10,11,59,15.80
2012,04,10,12,00,15.90
2012,04,10,12,01,15.90
2012,04,10,12,02,16.00
2012,04,10,12,03,16.10
2012,04,10,12,04,16.10
2012,04,10,12,05,16.10
2012,04,10,12,06,16.10
2012,04,10,12,07,16.10
2012,04,10,12,08,16.00
2012,04,10,12,09,15.90
2012,04,10,12,10,15.90
2012,04,10,12,11,15.80
2012,04,10,12,12,15.80
2012,04,10,12,13,15.70
2012,04,10,12,14,15.70
2012,04,10,12,15,15.70
2012,04,10,12,16,15.70
2012,04,10,12,17,15.60
2012,04,10,12,18,15.50
2012,04,10,12,19,15.50
2012,04,10,12,20,15.50
2012,04,10,12,21,15.50
2012,04,10,12,22,15.40
2012,04,10,12,23,15.40
2012,04,10,12,24,15.40
2012,04,10,12,25,15.30
2012,04,10,12,26,15.20
2012,04,10,12,27,15.10
2012,04,10,12,28,15.00
2012,04,10,12,29,15.00
2012,04,10,12,30,14.90
2012,04,10,12,31,14.70
2012,04,10,12,32,14.60
2012,04,10,12,33,14.40
2012,04,10,12,34,14.30
2012,04,10,12,35,14.30
2012,04,10,12,36,14.20
2012,04,10,12,37,14.20
2012,04,10,12,38,14.20
2012,04,10,12,39,14.20
2012,04,10,12,40,14.20
2012,04,10,12,41,14.10
2012,04,10,12,42,14.10
2012,04,10,12,43,14.20
2012,04,10,12,44,14.30
2012,04,10,12,45,14.40
2012,04,10,12,46,14.50
2012,04,10,12,47,14.60
2012,04,10,12,48,14.60
2012,04,10,12,49,14.80
2012,04,10,12,50,14.90
2012,04,10,12,51,14.90
2012,04,10,12,52,15.00
2012,04,10,12,53,15.00
2012,04,10,12,54,15.00
2012,04,10,12,55,15.00
2012,04,10,12,56,15.00
2012,04,10,12,57,15.00
2012,04,10,12,58,15.00
2012,04,10,12,59,15.10
2012,04,10,13,00,15.20
2012,04,10,13,01,15.30
2012,04,10,13,02,15.30
2012,04,10,13,03,15.40
2012,04,10,13,04,15.50
2012,04,10,13,05,15.60
2012,04,10,13,06,15.60
2012,04,10,13,07,15.70
2012,04,10,13,08,15.70
2012,04,10,13,09,15.70
2012,04,10,13,10,15.70
2012,04,10,13,11,15.70
2012,04,10,13,12,15.70
2012,04,10,13,13,15.80
2012,04,10,13,14,15.80
2012,04,10,13,15,15.80
2012,04,10,13,16,15.80
2012,04,10,13,17,15.70
2012,04,10,13,18,15.60
2012,04,10,13,19,15.60
2012,04,10,13,20,15.50
2012,04,10,13,21,15.40
2012,04,10,13,22,15.60
2012,04,10,13,23,15.60
2012,04,10,13,24,15.60
2012,04,10,13,25,15.70
2012,04,10,13,26,15.70
2012,04,10,13,27,15.70
2012,04,10,13,28,15.60
2012,04,10,13,29,15.60
2012,04,10,13,30,15.60
2012,04,10,13,31,15.50
2012,04,10,13,32,15.40
2012,04,10,13,33,15.40
2012,04,10,13,34,15.50
2012,04,10,13,35,15.50
2012,04,10,13,36,15.50
2012,04,10,13,37,15.50
2012,04,10,13,38,15.60
2012,04,10,13,39,15.60
2012,04,10,13,40,15.60
2012,04,10,13,41,15.70
2012,04,10,13,42,15.70
2012,04,10,13,43,15.70
2012,04,10,13,44,15.70
2012,04,10,13,45,15.70
2012,04,10,13,46,15.70
2012,04,10,13,47,15.70
2012,04,10,13,48,15.70
2012,04,10,13,49,15.70
2012,04,10,13,50,15.70
2012,04,10,13,51,15.70
2012,04,10,13,52,15.80
2012,04,10,13,53,15.80
2012,04,10,13,54,15.90
2012,04,10,13,55,15.90
2012,04,10,13,56,15.90
2012,04,10,13,57,15.80
2012,04,10,13,58,15.70
2012,04,10,13,59,15.70
2012,04,10,14,00,15.70
2012,04,10,14,01,15.70
2012,04,10,14,02,15.70
2012,04,10,14,03,15.70
2012,04,10,14,04,15.60
2012,04,10,14,05,15.60
2012,04,10,14,06,15.60
2012,04,10,14,07,15.60
2012,04,10,14,08,15.50
2012,04,10,14,09,15.50
2012,04,10,14,10,15.50
2012,04,10,14,11,15.40
2012,04,10,14,12,15.40
2012,04,10,14,13,15.40
2012,04,10,14,14,15.40
2012,04,10,14,15,15.40
2012,04,10,14,16,15.40
2012,04,10,14,17,15.40
2012,04,10,14,18,15.40
2012,04,10,14,19,15.40
2012,04,10,14,20,15.60
2012,04,10,14,21,15.60
2012,04,10,14,22,15.60
2012,04,10,14,23,15.60
2012,04,10,14,24,15.70
2012,04,10,14,25,15.80
2012,04,10,14,26,15.80
2012,04,10,14,27,15.70
2012,04,10,14,28,15.70
2012,04,10,14,29,15.70
2012,04,10,14,30,15.70
2012,04,10,14,31,15.70
2012,04,10,14,32,15.70
2012,04,10,14,33,15.70
2012,04,10,14,34,15.70
2012,04,10,14,35,15.70
2012,04,10,14,36,15.70
2012,04,10,14,37,15.70
2012,04,10,14,38,15.60
2012,04,10,14,39,15.60
2012,04,10,14,40,15.50
2012,04,10,14,41,15.40
2012,04,10,14,42,15.40
2012,04,10,14,43,15.30
2012,04,10,14,44,15.30
2012,04,10,14,45,15.20
2012,04,10,14,46,15.10
2012,04,10,14,47,15.00
2012,04,10,14,48,15.00
2012,04,10,14,49,15.00
2012,04,10,14,50,15.00
2012,04,10,14,51,15.10
2012,04,10,14,52,15.10
2012,04,10,14,53,15.00
2012,04,10,14,54,15.00
2012,04,10,14,55,15.00
2012,04,10,14,56,15.00
2012,04,10,14,57,15.10
2012,04,10,14,58,15.20
2012,04,10,14,59,15.20
2012,04,10,15,00,15.20
2012,04,10,15,01,15.10
2012,04,10,15,02,15.10
2012,04,10,15,03,15.20
2012,04,10,15,04,15.10
2012,04,10,15,05,15.20
2012,04,10,15,06,15.20
2012,04,10,15,07,15.10
2012,04,10,15,08,15.00
2012,04,10,15,09,15.00
2012,04,10,15,10,15.00
2012,04,10,15,11,15.00
2012,04,10,15,12,15.00
2012,04,10,15,13,15.00
2012,04,10,15,14,15.00
2012,04,10,15,15,14.90
2012,04,10,15,16,14.90
2012,04,10,15,17,15.00
2012,04,10,15,18,15.00
2012,04,10,15,19,15.00
2012,04,10,15,20,15.10
2012,04,10,15,21,15.00
2012,04,10,15,22,15.00
2012,04,10,15,23,15.00
2012,04,10,15,24,15.00
2012,04,10,15,25,15.00
2012,04,10,15,26,15.00
2012,04,10,15,27,15.00
2012,04,10,15,28,15.00
2012,04,10,15,29,15.00
2012,04,10,15,30,15.00
2012,04,10,15,31,15.00
2012,04,10,15,32,15.00
2012,04,10,15,33,15.00
2012,04,10,15,34,15.00
2012,04,10,15,35,15.00
2012,04,10,15,36,14.90
2012,04,10,15,37,14.90
2012,04,10,15,38,15.00
2012,04,10,15,39,15.00
2012,04,10,15,40,15.00
2012,04,10,15,41,15.10
2012,04,10,15,42,15.20
2012,04,10,15,43,15.20
2012,04,10,15,44,15.10
2012,04,10,15,45,15.10
2012,04,10,15,46,15.20
2012,04,10,15,47,15.30
2012,04,10,15,48,15.40
2012,04,10,15,49,15.40
2012,04,10,15,50,15.40
2012,04,10,15,51,15.40
2012,04,10,15,52,15.40
2012,04,10,15,53,15.40
2012,04,10,15,54,15.40
2012,04,10,15,55,15.30
2012,04,10,15,56,15.30
2012,04,10,15,57,15.20
2012,04,10,15,58,15.20
2012,04,10,15,59,15.20
2012,04,10,16,00,15.10
2012,04,10,16,01,15.10
2012,04,10,16,02,15.00
2012,04,10,16,03,15.00
2012,04,10,16,04,15.00
2012,04,10,16,05,15.00
2012,04,10,16,06,15.00
2012,04,10,16,07,15.00
2012,04,10,16,08,15.00
2012,04,10,16,09,15.00
2012,04,10,16,10,15.00
2012,04,10,16,11,15.00
2012,04,10,16,12,15.00
2012,04,10,16,13,14.80
2012,04,10,16,14,14.70
2012,04,10,16,15,14.60
2012,04,10,16,16,14.50
2012,04,10,16,17,14.40
2012,04,10,16,18,14.30
2012,04,10,16,19,14.20
2012,04,10,16,20,14.20
2012,04,10,16,21,14.10
2012,04,10,16,22,14.00
2012,04,10,16,23,14.00
2012,04,10,16,24,14.00
2012,04,10,16,25,14.00
2012,04,10,16,26,13.90
2012,04,10,16,27,13.90
2012,04,10,16,28,13.90
2012,04,10,16,29,13.90
2012,04,10,16,30,13.90
2012,04,10,16,31,13.90
2012,04,10,16,32,13.90
2012,04,10,16,33,13.90
2012,04,10,16,34,14.00
2012,04,10,16,35,14.00
2012,04,10,16,36,14.00
2012,04,10,16,37,14.00
2012,04,10,16,38,14.00
2012,04,10,16,39,14.00
2012,04,10,16,40,14.00
2012,04,10,16,41,14.00
2012,04,10,16,42,14.00
2012,04,10,16,43,14.10
2012,04,10,16,44,14.10
2012,04,10,16,45,14.00
2012,04,10,16,46,14.00
2012,04,10,16,47,13.90
2012,04,10,16,48,13.90
2012,04,10,16,49,13.90
2012,04,10,16,50,13.90
2012,04,10,16,51,13.90
2012,04,10,16,52,13.90
2012,04,10,16,53,14.00
2012,04,10,16,54,14.00
2012,04,10,16,55,13.90
2012,04,10,16,56,13.90
2012,04,10,16,57,13.90
2012,04,10,16,58,14.00
2012,04,10,16,59,14.10
2012,04,10,17,00,14.10
2012,04,10,17,01,14.10
2012,04,10,17,02,14.10
2012,04,10,17,03,14.10
2012,04,10,17,04,14.10
2012,04,10,17,05,14.20
2012,04,10,17,06,14.20
2012,04,10,17,07,14.20
2012,04,10,17,08,14.20
2012,04,10,17,09,14.20
2012,04,10,17,10,14.20
2012,04,10,17,11,14.30
2012,04,10,17,12,14.40
2012,04,10,17,13,14.40
2012,04,10,17,14,14.40
2012,04,10,17,15,14.40
2012,04,10,17,16,14.40
2012,04,10,17,17,14.40
2012,04,10,17,18,14.40
2012,04,10,17,19,14.50
2012,04,10,17,20,14.50
2012,04,10,17,21,14.60
2012,04,10,17,22,14.70
2012,04,10,17,23,14.70
2012,04,10,17,24,14.80
2012,04,10,17,25,14.80
2012,04,10,17,26,14.90
2012,04,10,17,27,15.00
2012,04,10,17,28,15.00
2012,04,10,17,29,15.00
2012,04,10,17,30,15.10
2012,04,10,17,31,15.20
2012,04,10,17,32,15.30
2012,04,10,17,33,15.50
2012,04,10,17,34,15.60
2012,04,10,17,35,15.70
2012,04,10,17,36,15.80
2012,04,10,17,37,15.90
2012,04,10,17,38,15.90
2012,04,10,17,39,16.00
2012,04,10,17,40,16.00
2012,04,10,17,41,16.10
2012,04,10,17,42,16.10
2012,04,10,17,43,16.20
2012,04,10,17,44,16.20
2012,04,10,17,45,16.20